Flag Weather past 2 weeks in Oxnard, California, U.S.A.

Now
53 °F

Clear.


Feels Like: 53 °F
Forecast: 54 / 71 °F
Wind: No wind

Location: Oxnard Airport

Current Time: Nov 23, 2014 at 7:01:03 AM

Latest Report: Nov 23, 2014 at 5:51 AM


Visibility: 10 mi

Pressure: 30.08 "Hg

Humidity: 72%

Dew point: 44 °F

Location of OxnardLocation

Historic Weather in Oxnard — Graph

°F

Oxnard temperature yesterday

Maximum temperature yesterday: 71 °F (at 3:51 PM)
Minimum temperature yesterday: 53 °F (at 5:51 AM)
Average temperature yesterday: 62 °F

Past Weeks' High & Low Weather Summary

 TemperatureHumidityPressure
High81 °F (Nov 18, 11:51 AM)96% (Nov 9, 2:51 AM)30.20 "Hg (Nov 9, 2:51 AM)
Low52 °F (Nov 9, 6:54 AM)5% (Nov 16, 12:51 PM)29.82 "Hg (Nov 9, 4:51 PM)
Average63 °F63%30.01 "Hg
* Reported Nov 8 5:46 AM — Nov 23 5:51 AM, Oxnard, Weather by CustomWeather, © 2014

Note: Actual official high and low records may vary slightly from our data, if they occured in-between our weather recording intervals... More about our weather records

Advertising

Oxnard weather history for previous 24 hours

 ConditionsComfort  
Time TempWeatherWind HumidityBarometerVisibility
5:51 AM
Nov 23
53 °FClear.No wind72%30.08 "Hg10 mi
4:51 AM54 °FClear.3 mph72%30.05 "Hg10 mi
3:51 AM54 °FClear.6 mph72%30.04 "Hg10 mi
2:51 AM56 °FClear.8 mph70%30.04 "Hg10 mi
1:51 AM56 °FClear.5 mph70%30.05 "Hg10 mi
12:51 AM55 °FClear.No wind72%30.04 "Hg10 mi
11:51 PM
Nov 22
57 °FClear.3 mph69%30.03 "Hg10 mi
10:51 PM58 °FClear.5 mph70%30.03 "Hg10 mi
9:51 PM58 °FClear.3 mph75%30.02 "Hg10 mi
8:51 PM60 °FClear.7 mph72%30.01 "Hg10 mi
7:51 PM62 °FClear.6 mph80%30.00 "Hg10 mi
6:51 PM64 °FClear.5 mph81%29.98 "Hg10 mi
5:51 PM65 °FClear.No wind78%29.97 "Hg10 mi
4:51 PM69 °FClear.5 mph57%29.98 "Hg10 mi
3:51 PM71 °FSunny.5 mph55%29.99 "Hg10 mi
2:51 PM70 °FSunny.6 mph59%30.00 "Hg10 mi
1:51 PM69 °FSunny.8 mph47%30.02 "Hg10 mi
12:51 PM69 °FSunny.10 mph55%30.04 "Hg10 mi
11:51 AM68 °FSunny.10 mph65%30.06 "Hg10 mi
10:51 AM67 °FSunny.6 mph57%30.09 "Hg10 mi
9:51 AM67 °FSunny.No wind41%30.11 "Hg10 mi
8:51 AM62 °FSunny.5 mph43%30.10 "Hg10 mi
7:51 AM57 °FSunny.7 mph49%30.09 "Hg10 mi
Weather by CustomWeather, © 2014

See weather overviewHow to use our weather pages